KE6AFE Weather Reports


time (UTC)temp
C
wind
direction
speed
KPH
gust
KPH
rain 1hr
cm
rain 24hr
cm
rain mn
cm
humidity
%
barometer
mb
20260504100138 8 2 0.0 0.0 0.00 0.03 0.00 76 1014.9
20260504081958 10 2 0.0 0.0 0.00 0.03 0.00 74 1015.7
20260504080948 10 2 0.0 0.0 0.00 0.03 0.00 74 1015.7
20260504050648 12 2 0.0 0.0 0.00 0.03 0.03 68 1015.6
20260504045638 12 1 0.0 0.0 0.00 0.03 0.03 68 1015.6
20260504044628 12 2 0.0 0.0 0.00 0.03 0.03 67 1015.6
20260504043618 13 2 0.0 0.0 0.00 0.03 0.03 67 1015.5
20260504042608 13 1 0.0 0.0 0.00 0.03 0.03 66 1015.4
20260504041558 13 1 0.0 0.0 0.00 0.03 0.03 65 1015.2
20260504040548 13 1 0.0 0.0 0.00 0.03 0.03 65 1015.1
20260504035538 13 1 0.0 0.0 0.00 0.03 0.03 65 1015.0
20260504034528 14 2 0.0 0.0 0.00 0.03 0.03 65 1015.0
20260504033518 14 1 0.0 0.0 0.00 0.03 0.03 64 1014.9
20260504032508 14 1 0.0 0.0 0.00 0.03 0.03 64 1014.8
20260504031458 14 1 0.0 0.0 0.00 0.03 0.03 64 1014.9
20260504030448 15 1 0.0 0.0 0.00 0.03 0.03 62 1014.8
20260504025438 15 1 0.0 0.0 0.00 0.03 0.03 61 1014.6
20260504024428 15 1 0.0 0.0 0.00 0.03 0.03 60 1014.5
20260504023418 15 1 0.0 0.0 0.00 0.03 0.03 59 1014.5
20260504022408 16 1 0.0 0.0 0.00 0.03 0.03 57 1014.4
20260504021358 16 2 0.0 0.0 0.00 0.03 0.03 58 1014.4
20260504020348 16 2 0.0 0.0 0.00 0.03 0.03 58 1014.6
20260504015338 16 1 0.0 0.0 0.00 0.03 0.03 57 1014.7
20260504014328 16 1 0.0 0.0 0.00 0.03 0.03 57 1014.7
20260504013318 17 2 0.0 0.0 0.00 0.03 0.03 55 1014.7
20260504012308 17 1 0.0 0.0 0.00 0.03 0.03 53 1014.6
20260504011258 17 1 0.0 0.0 0.00 0.03 0.03 54 1014.7
20260504010248 17 2 0.0 0.0 0.00 0.03 0.03 53 1014.6
20260504005238 18 1 0.0 0.0 0.00 0.03 0.03 53 1014.6
20260504004228 18 1 0.0 0.0 0.00 0.03 0.03 51 1014.6
20260504003218 18 1 0.0 0.0 0.00 0.03 0.03 50 1014.5
20260504002208 18 1 0.0 0.0 0.00 0.03 0.03 50 1014.5
20260504001158 18 1 0.0 0.0 0.00 0.03 0.03 50 1014.5
20260504000148 19 1 0.0 0.0 0.00 0.03 0.03 49 1014.4
20260503235138 20 1 0.0 0.0 0.00 0.03 0.03 48 1014.4
20260503234128 20 1 0.0 0.0 0.00 0.03 0.03 48 1014.4
20260503233118 20 1 0.0 0.0 0.00 0.03 0.03 47 1014.3
20260503232108 20 1 0.0 0.0 0.00 0.03 0.03 48 1014.3
20260503231058 20 1 0.0 0.0 0.00 0.03 0.03 49 1014.3
20260503230048 20 1 0.0 0.0 0.00 0.03 0.03 49 1014.4
20260503225038 20 1 0.0 0.0 0.00 0.03 0.03 49 1014.5
20260503224028 20 1 0.0 0.0 0.00 0.03 0.03 47 1014.6
20260503223018 20 1 0.0 0.0 0.00 0.03 0.03 47 1014.6
20260503222008 20 1 0.0 0.0 0.00 0.03 0.03 44 1014.6
20260503220958 20 1 0.0 0.0 0.00 0.03 0.03 46 1014.7
20260503215948 20 1 0.0 0.0 0.00 0.03 0.03 48 1014.6
20260503214938 19 1 0.0 0.0 0.00 0.03 0.03 49 1014.6
20260503213928 19 0 0.0 0.0 0.00 0.03 0.03 51 1014.6
20260503212918 18 1 0.0 0.0 0.00 0.03 0.03 50 1014.5
20260503211908 18 1 0.0 0.0 0.00 0.03 0.03 52 1014.5
20260503210858 18 1 0.0 0.0 0.00 0.03 0.03 53 1014.5
20260503205848 18 1 0.0 0.0 0.00 0.03 0.03 52 1014.4
20260503204838 18 1 0.0 0.0 0.00 0.03 0.03 52 1014.5
20260503203828 18 1 0.0 0.0 0.00 0.03 0.03 55 1014.6
20260503202818 18 1 0.0 0.0 0.00 0.03 0.03 57 1014.6
20260503201808 18 1 0.0 0.0 0.00 0.03 0.03 58 1014.7
20260503200758 18 1 0.0 0.0 0.00 0.03 0.03 61 1014.7
20260503195748 18 1 0.0 0.0 0.00 0.03 0.03 62 1014.7
20260503194738 18 1 0.0 0.0 0.00 0.03 0.03 62 1014.8
20260503193728 18 1 0.0 0.0 0.00 0.03 0.03 62 1014.7
20260503192718 18 1 0.0 0.0 0.00 0.03 0.03 62 1014.6
20260503191708 18 1 0.0 0.0 0.00 0.03 0.03 62 1014.7
20260503190658 18 1 0.0 0.0 0.00 0.03 0.03 61 1014.6
20260503185648 18 0 0.0 0.0 0.00 0.03 0.03 61 1014.5
20260503184638 18 1 0.0 0.0 0.00 0.03 0.03 62 1014.5
20260503183628 17 1 0.0 0.0 0.00 0.03 0.03 61 1014.4
20260503182618 17 1 0.0 0.0 0.00 0.03 0.03 59 1014.2
20260503181608 17 1 0.0 0.0 0.00 0.03 0.03 62 1014.2
20260503180558 17 1 0.0 0.0 0.00 0.03 0.03 62 1014.1
20260503175548 16 1 0.0 0.0 0.00 0.03 0.03 63 1014.2
20260503174538 16 1 0.0 0.0 0.00 0.03 0.03 65 1014.3
20260503173528 16 1 0.0 0.0 0.00 0.03 0.03 65 1014.2
20260503172518 16 1 0.0 0.0 0.00 0.03 0.03 65 1014.1
20260503171508 16 0 0.0 0.0 0.00 0.03 0.03 64 1014.0
20260503170458 16 1 0.0 0.0 0.00 0.03 0.03 63 1014.0
20260503150258 13 1 0.0 0.0 0.00 0.00 0.00 78 1013.5
20260503140158 12 3 0.0 0.0 0.00 0.00 0.00 75 1012.5
20260503131108 12 2 0.0 0.0 0.00 0.00 0.00 74 1012.2